Hibbing, MN

7:27 AM CDT on April 26, 2017 (GMT -0500)
Chisholm-hibbing

Weather History for KHIB - December, 2012

Change the Weather History Date:

Saturday, December 8, 2012

  Actual Average Record
Temperature  
Mean Temperature 18 °F -  
Max Temperature 24 °F 21 °F 45 °F (1990)
Min Temperature 12 °F 4 °F - (1996)
Degree Days  
Heating Degree Days 47    
Moisture  
Dew Point 13 °F    
Average Humidity 76    
Maximum Humidity 86    
Minimum Humidity 68    
Precipitation  
Precipitation 0.00 in - - ()
Sea Level Pressure  
Sea Level Pressure 30.10 in    
Wind  
Wind Speed 2 mph (ESE)    
Max Wind Speed 7 mph    
Max Gust Speed -    
Visibility 10 miles    
Events Snow    
Averages and records for this station are not official NWS values.
T = Trace of Precipitation, MM = Missing Value Source: NWS Daily Summary

Daily Weather History Graph

Daily Weather History Graph

Search for Another Location

Airport or City:

Trip Planner

Search our weather history database for the weather conditions in past years. The results will help you decide how hot, cold, wet, or windy it might be!

Date:

Astronomy

Dec. 08, 2012 Rise Set
Actual Time 7:46 AM CST 4:20 PM CST
Civil Twilight 7:10 AM CST 4:56 PM CST
Nautical Twilight 6:31 AM CST 5:35 PM CST
Astronomical Twilight 5:54 AM CST 6:12 PM CST
Moon 1:53 AM CST (12/8) 1:06 PM CST (12/8)
Length of Visible Light 9h 45m
Length of Day
8h 34m
Waning Crescent, 28% of the Moon is Illuminated
Dec 8
Waning Crescent
Dec 13
New
Dec 19
First Quarter
Dec 28
Full
Jan 4
Last Quarter

Hourly Weather History & Observations

Time (CST) Temp. Windchill Dew Point Humidity Pressure Visibility Wind Dir Wind Speed Gust Speed Precip Events Conditions
12:53 AM 12.9 °F - 7.0 °F 77% 30.12 in 10.0 mi Calm Calm - N/A   Overcast
1:53 AM 14.0 °F - 7.0 °F 74% 30.12 in 10.0 mi Calm Calm - N/A   Overcast
2:53 AM 14.0 °F - 7.0 °F 74% 30.12 in 10.0 mi Calm Calm - N/A   Overcast
3:53 AM 14.0 °F - 7.0 °F 74% 30.11 in 10.0 mi Calm Calm - N/A   Overcast
5:53 AM 14.0 °F 8.2 °F 8.1 °F 77% 30.11 in 10.0 mi SE 3.5 mph - N/A   Overcast
6:53 AM 14.0 °F - 7.0 °F 74% 30.12 in 10.0 mi Calm Calm - N/A   Overcast
7:07 AM 14.0 °F 8.2 °F 6.8 °F 73% 30.02 in 10.0 mi ESE 3.5 mph - N/A   Overcast
7:53 AM 14.0 °F - 7.0 °F 74% 30.12 in 10.0 mi Calm Calm - N/A   Overcast
8:53 AM 15.1 °F 7.7 °F 7.0 °F 70% 30.12 in 10.0 mi ESE 4.6 mph - N/A   Overcast
9:53 AM 16.0 °F 10.4 °F 8.1 °F 71% 30.13 in 10.0 mi East 3.5 mph - N/A   Overcast
10:53 AM 18.0 °F 11.1 °F 9.0 °F 68% 30.13 in 10.0 mi ESE 4.6 mph - 0.00 in   Overcast
11:53 AM 19.0 °F 13.9 °F 12.0 °F 74% 30.11 in 9.0 mi SSE 3.5 mph - 0.00 in Snow Light Snow
12:11 PM 19.4 °F 10.4 °F 12.2 °F 74% 30.01 in 7.0 mi SE 6.9 mph - 0.00 in Snow Light Snow
12:53 PM 21.9 °F 15.7 °F 14.0 °F 72% 30.09 in 10.0 mi South 4.6 mph - 0.00 in   Overcast
1:53 PM 23.0 °F 15.8 °F 15.1 °F 72% 30.08 in 10.0 mi South 5.8 mph - N/A   Overcast
2:53 PM 24.1 °F 18.2 °F 15.1 °F 69% 30.07 in 10.0 mi South 4.6 mph - N/A   Overcast
3:53 PM 24.1 °F - 16.0 °F 71% 30.09 in 10.0 mi Calm Calm - N/A   Overcast
4:53 PM 23.0 °F 18.4 °F 16.0 °F 74% 30.09 in 10.0 mi East 3.5 mph - N/A   Overcast
5:53 PM 21.9 °F - 16.0 °F 78% 30.11 in 10.0 mi Calm Calm - N/A   Overcast
6:53 PM 19.9 °F - 15.1 °F 81% 30.11 in 10.0 mi Calm Calm - N/A   Overcast
7:53 PM 19.9 °F - 15.1 °F 81% 30.13 in 10.0 mi Calm Calm - N/A   Overcast
8:53 PM 23.0 °F 17.0 °F 19.0 °F 85% 30.13 in 10.0 mi ESE 4.6 mph - N/A   Overcast
9:08 PM 23.0 °F 17.0 °F 19.4 °F 86% 30.06 in 10.0 mi ESE 4.6 mph - N/A   Overcast
9:53 PM 23.0 °F 17.0 °F 19.0 °F 85% 30.14 in 10.0 mi East 4.6 mph - N/A   Overcast
10:53 PM 24.1 °F 18.2 °F 19.0 °F 81% 30.14 in 10.0 mi East 4.6 mph - N/A   Overcast
11:15 PM 24.8 °F 20.5 °F 19.4 °F 80% 30.06 in 10.0 mi East 3.5 mph - N/A   Overcast
11:22 PM 24.8 °F 19.1 °F 19.4 °F 80% 30.06 in 10.0 mi ESE 4.6 mph - N/A   Overcast
11:53 PM 24.1 °F 18.2 °F 19.9 °F 84% 30.14 in 4.0 mi ESE 4.6 mph - 0.00 in Snow Light Snow